sat.trackr.live / text

‹ back to catalog

STARLINK-2700

NORAD 48431 · 2021-040D

PAYLOAD ACTIVE UNKNOWN

§ Identity

Operator
Country
US
Launch date
2021-05-09
Launch site
AFETR
Launch vehicle
Mass (kg)
RCS (m²)

Purposes: comms

External: N2YO · Heavens-Above · Gunter

§ Orbital elements

Epoch: 2026-05-25T00:46:02.240832Z

Period
94.01 min
Inclination
53.1601°
Eccentricity
0.0001464
Mean motion
15.31703090 rev/d
Perigee alt
469.7 km
Apogee alt
471.7 km
Semi-major
6,848.9 km
B*
6.7529e-5
RAAN
157.7307°
Arg perigee
86.6479°
Mean anomaly
273.4689°
Rev number
27,872

§ Raw data

STARLINK-27001 48431U 21040D   26145.03197038  .00001731  00000+0  67529-4 0  99902 48431  53.1601 157.7307 0001464  86.6479 273.4689 15.31703090278727

JSON: /api/v1/satellites/48431 · /tle

For live sub-satellite position, see the globe view (requires WebGL).

§ Visibility from observer

Set your observer location to see the next 7 days of passes ≥ 10°. The values pass through the URL so the page stays shareable.

No JS? Fill the form by hand. The geolocation button needs JavaScript.